Regional Weather Roundup
Issued by NWS

Home | Current Version | Previous Version | Graphics & Text | Print | Product List | Glossary On
Versions: 1 2 3 4 5 6 7 8 9 10 11 12 13 14 15 16 17 18 19 20 21 22 23 24 25 26 27 28 29 30 31 32 33 34 35 36 37 38 39 40 41 42 43 44 45 46 47 48 49 50
000
ASUS43 KLOT 282200
RWRIL

ILLINOIS REGIONAL WEATHER ROUNDUP
NATIONAL WEATHER SERVICE CHICAGO/ROMEOVILLE IL
500 PM CDT TUE JUL 28 2015

NOTE: "FAIR" INDICATES FEW OR NO CLOUDS BELOW 12,000 FEET WITH NO
SIGNIFICANT WEATHER AND/OR OBSTRUCTIONS TO VISIBILITY.

* THESE STATIONS ARE NOT UNDER NWS QUALITY CONTROL. THEY ALSO MAY NOT
  REPORT WEATHER SUCH AS PRECIPITATION OR FOG.

ILZ001-002-007-009-015-016-024-282300-
NORTHWEST ILLINOIS

CITY           SKY/WX    TMP DP  RH WIND       PRES   REMARKS
MOLINE         CLOUDY    84  76  76 SW6       29.88S HX  93
STERLING*      CLOUDY    84  75  74 SW5       29.90R HX  92
$$

ILZ003-004-008-010-011-017-018-282300-
NORTH CENTRAL ILLINOIS

CITY           SKY/WX    TMP DP  RH WIND       PRES   REMARKS
ROCKFORD       CLOUDY    85  74  69 S10       29.92R HX  92
$$

ILZ005-006-012>014-019>023-282300-
NORTHEAST ILLINOIS

CITY           SKY/WX    TMP DP  RH WIND       PRES   REMARKS
CHICAGO-OHARE  PTSUNNY   89  70  53 SE14      29.87S HX  94
CHICAGO-MIDWAY PTSUNNY   93  67  42 S13       29.86F HX  96
AURORA         PTSUNNY   87  72  60 S3        29.90R HX  93
LANSING*       SUNNY     90  65  44 SE8       29.88F HX  91
WAUKEGAN       PTSUNNY   80  69  69 SE7       29.91R HX  83
DUPAGE AIRPORT PTSUNNY   89  69  51 S12       29.89R HX  93
WHEELING       PTSUNNY   86  70  58 SE8       29.89S HX  90
NORTHERLY ISL    N/A     81  70  69 E15         N/A  HX  84
$$

LMZ740>746-282300-
SOUTHERN LAKE MICHIGAN

STATION/POSITION SKY/WX   TEMP    WIND        PRES    VSBY  WAVE
                          AIR SEA DIR/SP/G                  HT/PER
                          (F)     (DEG/KT/KT) (MB)    (MI)  (FT/S)
HARRISON CRIB              78      90/ 22/ 23   N/A
BURNHAM HARBOR             81      90/ 14       N/A
CALUMET HARBOR             81      70/ 11/ 14   N/A
BURNS HARBOR               88     110/ 11/ 20 1012.5F
MICHIGAN CITY              81      20/  9/  9   N/A
MICHIGAN CITY 6N           79 78   50/  8/  8   N/A           0
ST. JOSEPH                 80 79   70/  6/  6   N/A           0
$$

ILZ025>027-034>036-040-047-049-050-058-095>099-282300-
WEST-CENTRAL ILLINOIS

CITY           SKY/WX    TMP DP  RH WIND       PRES   REMARKS
QUINCY         SUNNY     92  77  61 S8        29.90F HX 105
MACOMB*        MOSUNNY   91  78  66 S9        29.91F HX 105
$$

ILZ028>032-037-038-041>044-048-051>054-059>061-282300-
CENTRAL ILLINOIS

CITY           SKY/WX    TMP DP  RH WIND       PRES   REMARKS
DECATUR        CLOUDY    76  72  87 E6        29.94F
PEORIA         PTSUNNY   84  74  71 SE5       29.91S HX  91
SPRINGFIELD    MOSUNNY   91  79  67 E12       29.91F HX 107
TAYLORVILLE    NOT AVBL
$$

ILZ033-039-045-046-055>057-062-063-282300-
EAST-CENTRAL ILLINOIS

CITY           SKY/WX    TMP DP  RH WIND       PRES   REMARKS
CHAMPAIGN      CLOUDY    76  73  91 S5        29.93F
MATTOON        PTSUNNY   76  72  87 CALM      29.95S
$$

ILZ079-100>102-282300-
SOUTHWEST ILLINOIS

CITY           SKY/WX    TMP DP  RH WIND       PRES   REMARKS
ALTON          MOSUNNY   86  73  66 S12       29.93R HX  93
BELLEVILLE     RAIN      79  75  89 N10       29.92S HX  82
CAHOKIA*       CLOUDY    85  71  63 E12G21    29.92S HX  90
SPARTA*        MOSUNNY   93  79  63 CALM      29.93S HX 110
$$

ILZ064>066-069>071-074>076-080>082-084>086-088>090-092>094-282300-
SOUTH-CENTRAL ILLINOIS

CITY           SKY/WX    TMP DP  RH WIND       PRES   REMARKS
CARBONDALE     MOSUNNY   92  77  61 W6        29.92F HX 105
MARION         PTSUNNY   95  79  59 W8        29.93F HX 112
MT. VERNON     MOSUNNY   86  72  62 SW8       29.93R THUNDER HX  92
SALEM*         MOSUNNY   94  77  56 CALM      29.93S HX 108
$$

ILZ067-068-072-073-078-083-087-091-282300-
SOUTHEAST ILLINOIS

CITY           SKY/WX    TMP DP  RH WIND       PRES   REMARKS
LAWRENCEVILLE  SUNNY     93  77  59 NW6       29.92F HX 107
FLORA*         SUNNY     93  77  59 CALM      29.92F HX 106
HARRISBURG*    MOSUNNY   89  76  67 NW9       29.92F HX 100
ROBINSON*      MOSUNNY   90  76  62 CALM      29.94F HX 101
CARMI*         MOSUNNY   83  74  72 S6        29.91F HX  90
$$

ABBREVIATIONS USED IN REMARKS
   TC - TEMPERATURE IN CELSIUS
  WCI - WIND CHILL INDEX
   HX - HEAT INDEX
  VSB - VISIBILITY
$$




USA.gov is the U.S. government's official web portal to all federal, state and local government web resources and services.